Year,Month,Day,Hour,Minute,Value (Times are PST for temperature in C)
2006,07,09,00,00,16.70
2006,07,09,00,01,16.70
2006,07,09,00,02,16.70
2006,07,09,00,03,16.70
2006,07,09,00,04,16.60
2006,07,09,00,05,16.60
2006,07,09,00,06,16.60
2006,07,09,00,07,16.60
2006,07,09,00,08,16.60
2006,07,09,00,09,16.60
2006,07,09,00,10,16.60
2006,07,09,00,11,16.60
2006,07,09,00,12,16.60
2006,07,09,00,13,16.60
2006,07,09,00,14,16.60
2006,07,09,00,15,16.70
2006,07,09,00,16,16.70
2006,07,09,00,17,16.80
2006,07,09,00,18,16.80
2006,07,09,00,19,16.80
2006,07,09,00,20,16.90
2006,07,09,00,21,16.90
2006,07,09,00,22,16.90
2006,07,09,00,23,16.90
2006,07,09,00,24,16.90
2006,07,09,00,25,17.00
2006,07,09,00,26,17.00
2006,07,09,00,27,17.00
2006,07,09,00,28,17.00
2006,07,09,00,29,17.00
2006,07,09,00,30,17.00
2006,07,09,00,31,17.00
2006,07,09,00,32,17.00
2006,07,09,00,33,16.90
2006,07,09,00,34,16.90
2006,07,09,00,35,16.90
2006,07,09,00,36,16.90
2006,07,09,00,37,16.90
2006,07,09,00,38,16.90
2006,07,09,00,39,16.90
2006,07,09,00,40,16.80
2006,07,09,00,41,16.80
2006,07,09,00,42,16.80
2006,07,09,00,43,16.70
2006,07,09,00,44,16.70
2006,07,09,00,45,16.70
2006,07,09,00,46,16.60
2006,07,09,00,47,16.60
2006,07,09,00,48,16.60
2006,07,09,00,49,16.50
2006,07,09,00,50,16.50
2006,07,09,00,51,16.40
2006,07,09,00,52,16.40
2006,07,09,00,53,16.40
2006,07,09,00,54,16.40
2006,07,09,00,55,16.40
2006,07,09,00,56,16.40
2006,07,09,00,57,16.40
2006,07,09,00,58,16.40
2006,07,09,00,59,16.40
2006,07,09,01,00,16.40
2006,07,09,01,01,16.50
2006,07,09,01,02,16.50
2006,07,09,01,03,16.50
2006,07,09,01,04,16.50
2006,07,09,01,05,16.50
2006,07,09,01,06,16.40
2006,07,09,01,07,16.40
2006,07,09,01,08,16.40
2006,07,09,01,09,16.40
2006,07,09,01,10,16.40
2006,07,09,01,11,16.40
2006,07,09,01,12,16.40
2006,07,09,01,13,16.50
2006,07,09,01,14,16.50
2006,07,09,01,15,16.60
2006,07,09,01,16,16.60
2006,07,09,01,17,16.60
2006,07,09,01,18,16.70
2006,07,09,01,19,16.70
2006,07,09,01,20,16.70
2006,07,09,01,21,16.80
2006,07,09,01,22,16.80
2006,07,09,01,23,16.90
2006,07,09,01,24,16.90
2006,07,09,01,25,17.00
2006,07,09,01,26,17.00
2006,07,09,01,27,17.10
2006,07,09,01,28,17.10
2006,07,09,01,29,17.20
2006,07,09,01,30,17.20
2006,07,09,01,31,17.30
2006,07,09,01,32,17.30
2006,07,09,01,33,17.30
2006,07,09,01,34,17.40
2006,07,09,01,35,17.40
2006,07,09,01,36,17.40
2006,07,09,01,37,17.50
2006,07,09,01,38,17.50
2006,07,09,01,39,17.50
2006,07,09,01,40,17.50
2006,07,09,01,41,17.50
2006,07,09,01,42,17.60
2006,07,09,01,43,17.60
2006,07,09,01,44,17.60
2006,07,09,01,45,17.60
2006,07,09,01,46,17.60
2006,07,09,01,47,17.60
2006,07,09,01,48,17.60
2006,07,09,01,49,17.60
2006,07,09,01,50,17.60
2006,07,09,01,51,17.60
2006,07,09,01,52,17.60
2006,07,09,01,53,17.60
2006,07,09,01,54,17.60
2006,07,09,01,55,17.60
2006,07,09,01,56,17.60
2006,07,09,01,57,17.60
2006,07,09,01,58,17.60
2006,07,09,01,59,17.60
2006,07,09,02,00,17.60
2006,07,09,02,01,17.60
2006,07,09,02,02,17.60
2006,07,09,02,03,17.60
2006,07,09,02,04,17.50
2006,07,09,02,05,17.50
2006,07,09,02,06,17.50
2006,07,09,02,07,17.50
2006,07,09,02,08,17.40
2006,07,09,02,09,17.40
2006,07,09,02,10,17.40
2006,07,09,02,11,17.40
2006,07,09,02,12,17.50
2006,07,09,02,13,17.50
2006,07,09,02,14,17.50
2006,07,09,02,15,17.50
2006,07,09,02,16,17.50
2006,07,09,02,17,17.50
2006,07,09,02,18,17.60
2006,07,09,02,19,17.60
2006,07,09,02,20,17.60
2006,07,09,02,21,17.60
2006,07,09,02,22,17.60
2006,07,09,02,23,17.60
2006,07,09,02,24,17.60
2006,07,09,02,25,17.60
2006,07,09,02,26,17.60
2006,07,09,02,27,17.50
2006,07,09,02,28,17.50
2006,07,09,02,29,17.50
2006,07,09,02,30,17.50
2006,07,09,02,31,17.50
2006,07,09,02,32,17.40
2006,07,09,02,33,17.40
2006,07,09,02,34,17.40
2006,07,09,02,35,17.40
2006,07,09,02,36,17.40
2006,07,09,02,37,17.40
2006,07,09,02,38,17.40
2006,07,09,02,39,17.40
2006,07,09,02,40,17.40
2006,07,09,02,41,17.40
2006,07,09,02,42,17.40
2006,07,09,02,43,17.40
2006,07,09,02,44,17.40
2006,07,09,02,45,17.40
2006,07,09,02,46,17.30
2006,07,09,02,47,17.30
2006,07,09,02,48,17.30
2006,07,09,02,49,17.30
2006,07,09,02,50,17.30
2006,07,09,02,51,17.30
2006,07,09,02,52,17.30
2006,07,09,02,53,17.20
2006,07,09,02,54,17.20
2006,07,09,02,55,17.20
2006,07,09,02,56,17.20
2006,07,09,02,57,17.10
2006,07,09,02,58,17.10
2006,07,09,02,59,17.10
2006,07,09,03,00,17.10
2006,07,09,03,01,17.00
2006,07,09,03,02,17.00
2006,07,09,03,03,17.00
2006,07,09,03,04,17.00
2006,07,09,03,05,17.00
2006,07,09,03,06,17.00
2006,07,09,03,07,17.00
2006,07,09,03,08,17.10
2006,07,09,03,09,17.10
2006,07,09,03,10,17.10
2006,07,09,03,11,17.10
2006,07,09,03,12,17.10
2006,07,09,03,13,17.10
2006,07,09,03,14,17.10
2006,07,09,03,15,17.10
2006,07,09,03,16,17.10
2006,07,09,03,17,17.10
2006,07,09,03,18,17.10
2006,07,09,03,19,17.10
2006,07,09,03,20,17.10
2006,07,09,03,21,17.10
2006,07,09,03,22,17.10
2006,07,09,03,23,17.10
2006,07,09,03,24,17.10
2006,07,09,03,25,17.10
2006,07,09,03,26,17.10
2006,07,09,03,27,17.10
2006,07,09,03,28,17.10
2006,07,09,03,29,17.10
2006,07,09,03,30,17.10
2006,07,09,03,31,17.00
2006,07,09,03,32,17.00
2006,07,09,03,33,17.00
2006,07,09,03,34,16.90
2006,07,09,03,35,16.90
2006,07,09,03,36,16.80
2006,07,09,03,37,16.80
2006,07,09,03,38,16.80
2006,07,09,03,39,16.80
2006,07,09,03,40,16.70
2006,07,09,03,41,16.70
2006,07,09,03,42,16.70
2006,07,09,03,43,16.60
2006,07,09,03,44,16.60
2006,07,09,03,45,16.60
2006,07,09,03,46,16.60
2006,07,09,03,47,16.50
2006,07,09,03,48,16.50
2006,07,09,03,49,16.40
2006,07,09,03,50,16.40
2006,07,09,03,51,16.40
2006,07,09,03,52,16.40
2006,07,09,03,53,16.30
2006,07,09,03,54,16.30
2006,07,09,03,55,16.30
2006,07,09,03,56,16.20
2006,07,09,03,57,16.20
2006,07,09,03,58,16.20
2006,07,09,03,59,16.20
2006,07,09,04,00,16.10
2006,07,09,04,01,16.10
2006,07,09,04,02,16.20
2006,07,09,04,03,16.20
2006,07,09,04,04,16.20
2006,07,09,04,05,16.20
2006,07,09,04,06,16.30
2006,07,09,04,07,16.30
2006,07,09,04,08,16.30
2006,07,09,04,09,16.30
2006,07,09,04,10,16.30
2006,07,09,04,11,16.30
2006,07,09,04,12,16.40
2006,07,09,04,13,16.40
2006,07,09,04,14,16.40
2006,07,09,04,15,16.40
2006,07,09,04,16,16.40
2006,07,09,04,17,16.30
2006,07,09,04,18,16.40
2006,07,09,04,19,16.40
2006,07,09,04,20,16.40
2006,07,09,04,21,16.30
2006,07,09,04,22,16.30
2006,07,09,04,23,16.30
2006,07,09,04,24,16.30
2006,07,09,04,25,16.30
2006,07,09,04,26,16.30
2006,07,09,04,27,16.30
2006,07,09,04,28,16.30
2006,07,09,04,29,16.30
2006,07,09,04,30,16.30
2006,07,09,04,31,16.20
2006,07,09,04,32,16.20
2006,07,09,04,33,16.20
2006,07,09,04,34,16.20
2006,07,09,04,35,16.20
2006,07,09,04,36,16.10
2006,07,09,04,37,16.10
2006,07,09,04,38,16.10
2006,07,09,04,39,16.10
2006,07,09,04,40,16.10
2006,07,09,04,41,16.10
2006,07,09,04,42,16.10
2006,07,09,04,43,16.10
2006,07,09,04,44,16.10
2006,07,09,04,45,16.00
2006,07,09,04,46,15.90
2006,07,09,04,47,15.90
2006,07,09,04,48,15.90
2006,07,09,04,49,15.80
2006,07,09,04,50,15.80
2006,07,09,04,51,15.80
2006,07,09,04,52,15.80
2006,07,09,04,53,15.80
2006,07,09,04,54,15.80
2006,07,09,04,55,15.80
2006,07,09,04,56,15.70
2006,07,09,04,57,15.70
2006,07,09,04,58,15.70
2006,07,09,04,59,15.70
2006,07,09,05,00,15.70
2006,07,09,05,01,15.70
2006,07,09,05,02,15.70
2006,07,09,05,03,15.70
2006,07,09,05,04,15.70
2006,07,09,05,05,15.70
2006,07,09,05,06,15.70
2006,07,09,05,07,15.70
2006,07,09,05,08,15.70
2006,07,09,05,09,15.70
2006,07,09,05,10,15.70
2006,07,09,05,11,15.60
2006,07,09,05,12,15.60
2006,07,09,05,13,15.60
2006,07,09,05,14,15.60
2006,07,09,05,15,15.60
2006,07,09,05,16,15.60
2006,07,09,05,17,15.60
2006,07,09,05,18,15.50
2006,07,09,05,19,15.50
2006,07,09,05,20,15.50
2006,07,09,05,21,15.50
2006,07,09,05,22,15.40
2006,07,09,05,23,15.40
2006,07,09,05,24,15.40
2006,07,09,05,25,15.40
2006,07,09,05,26,15.40
2006,07,09,05,27,15.40
2006,07,09,05,28,15.40
2006,07,09,05,29,15.40
2006,07,09,05,30,15.30
2006,07,09,05,31,15.30
2006,07,09,05,32,15.30
2006,07,09,05,33,15.30
2006,07,09,05,34,15.30
2006,07,09,05,35,15.30
2006,07,09,05,36,15.30
2006,07,09,05,37,15.30
2006,07,09,05,38,15.30
2006,07,09,05,39,15.30
2006,07,09,05,40,15.30
2006,07,09,05,41,15.30
2006,07,09,05,42,15.30
2006,07,09,05,43,15.30
2006,07,09,05,44,15.30
2006,07,09,05,45,15.30
2006,07,09,05,46,15.30
2006,07,09,05,47,15.30
2006,07,09,05,48,15.30
2006,07,09,05,49,15.30
2006,07,09,05,50,15.30
2006,07,09,05,51,15.30
2006,07,09,05,52,15.30
2006,07,09,05,53,15.30
2006,07,09,05,54,15.30
2006,07,09,05,55,15.30
2006,07,09,05,56,15.30
2006,07,09,05,57,15.30
2006,07,09,05,58,15.30
2006,07,09,05,59,15.30
2006,07,09,06,00,15.30
2006,07,09,06,01,15.30
2006,07,09,06,02,15.30
2006,07,09,06,03,15.30
2006,07,09,06,04,15.30
2006,07,09,06,05,15.40
2006,07,09,06,06,15.40
2006,07,09,06,07,15.40
2006,07,09,06,08,15.40
2006,07,09,06,09,15.40
2006,07,09,06,10,15.50
2006,07,09,06,11,15.40
2006,07,09,06,12,15.50
2006,07,09,06,13,15.50
2006,07,09,06,14,15.50
2006,07,09,06,15,15.50
2006,07,09,06,16,15.50
2006,07,09,06,17,15.50
2006,07,09,06,18,15.50
2006,07,09,06,19,15.50
2006,07,09,06,20,15.50
2006,07,09,06,21,15.60
2006,07,09,06,22,15.60
2006,07,09,06,23,15.60
2006,07,09,06,24,15.60
2006,07,09,06,25,15.60
2006,07,09,06,26,15.60
2006,07,09,06,27,15.60
2006,07,09,06,28,15.70
2006,07,09,06,29,15.70
2006,07,09,06,30,15.70
2006,07,09,06,31,15.70
2006,07,09,06,32,15.70
2006,07,09,06,33,15.80
2006,07,09,06,34,15.80
2006,07,09,06,35,15.80
2006,07,09,06,36,15.80
2006,07,09,06,37,15.80
2006,07,09,06,38,15.90
2006,07,09,06,39,15.90
2006,07,09,06,40,15.90
2006,07,09,06,41,16.00
2006,07,09,06,42,16.00
2006,07,09,06,43,16.00
2006,07,09,06,44,16.10
2006,07,09,06,45,16.10
2006,07,09,06,46,16.10
2006,07,09,06,47,16.20
2006,07,09,06,48,16.20
2006,07,09,06,49,16.20
2006,07,09,06,50,16.20
2006,07,09,06,51,16.20
2006,07,09,06,52,16.20
2006,07,09,06,53,16.20
2006,07,09,06,54,16.30
2006,07,09,06,55,16.30
2006,07,09,06,56,16.30
2006,07,09,06,57,16.30
2006,07,09,06,58,16.30
2006,07,09,06,59,16.30
2006,07,09,07,00,16.30
2006,07,09,07,01,16.30
2006,07,09,07,02,16.30
2006,07,09,07,03,16.40
2006,07,09,07,04,16.40
2006,07,09,07,05,16.40
2006,07,09,07,06,16.50
2006,07,09,07,07,16.50
2006,07,09,07,08,16.60
2006,07,09,07,09,16.60
2006,07,09,07,10,16.60
2006,07,09,07,11,16.70
2006,07,09,07,12,16.70
2006,07,09,07,13,16.70
2006,07,09,07,14,16.70
2006,07,09,07,15,16.70
2006,07,09,07,16,16.80
2006,07,09,07,17,16.80
2006,07,09,07,18,16.80
2006,07,09,07,19,16.80
2006,07,09,07,20,16.90
2006,07,09,07,21,16.90
2006,07,09,07,22,16.90
2006,07,09,07,23,16.90
2006,07,09,07,24,16.90
2006,07,09,07,25,16.90
2006,07,09,07,26,17.00
2006,07,09,07,27,17.00
2006,07,09,07,28,17.10
2006,07,09,07,29,17.10
2006,07,09,07,30,17.10
2006,07,09,07,31,17.20
2006,07,09,07,32,17.20
2006,07,09,07,33,17.20
2006,07,09,07,34,17.20
2006,07,09,07,35,17.30
2006,07,09,07,36,17.30
2006,07,09,07,37,17.30
2006,07,09,07,38,17.40
2006,07,09,07,39,17.40
2006,07,09,07,40,17.40
2006,07,09,07,41,17.50
2006,07,09,07,42,17.60
2006,07,09,07,43,17.60
2006,07,09,07,44,17.60
2006,07,09,07,45,17.70
2006,07,09,07,46,17.80
2006,07,09,07,47,17.80
2006,07,09,07,48,17.90
2006,07,09,07,49,17.90
2006,07,09,07,50,18.00
2006,07,09,07,51,18.10
2006,07,09,07,52,18.10
2006,07,09,07,53,18.20
2006,07,09,07,54,18.20
2006,07,09,07,55,18.30
2006,07,09,07,56,18.30
2006,07,09,07,57,18.30
2006,07,09,07,58,18.30
2006,07,09,07,59,18.30
2006,07,09,08,00,18.30
2006,07,09,08,01,18.30
2006,07,09,08,02,18.30
2006,07,09,08,03,18.40
2006,07,09,08,04,18.40
2006,07,09,08,05,18.40
2006,07,09,08,06,18.50
2006,07,09,08,07,18.50
2006,07,09,08,08,18.50
2006,07,09,08,09,18.60
2006,07,09,08,10,18.60
2006,07,09,08,11,18.60
2006,07,09,08,12,18.60
2006,07,09,08,13,18.60
2006,07,09,08,14,18.60
2006,07,09,08,15,18.60
2006,07,09,08,16,18.70
2006,07,09,08,17,18.70
2006,07,09,08,18,18.70
2006,07,09,08,19,18.70
2006,07,09,08,20,18.70
2006,07,09,08,21,18.70
2006,07,09,08,22,18.70
2006,07,09,08,23,18.70
2006,07,09,08,24,18.70
2006,07,09,08,25,18.70
2006,07,09,08,26,18.80
2006,07,09,08,27,18.80
2006,07,09,08,28,18.80
2006,07,09,08,29,18.80
2006,07,09,08,30,18.90
2006,07,09,08,31,18.90
2006,07,09,08,32,18.90
2006,07,09,08,33,19.00
2006,07,09,08,34,19.00
2006,07,09,08,35,19.10
2006,07,09,08,36,19.10
2006,07,09,08,37,19.20
2006,07,09,08,38,19.20
2006,07,09,08,39,19.30
2006,07,09,08,40,19.30
2006,07,09,08,41,19.30
2006,07,09,08,42,19.30
2006,07,09,08,43,19.40
2006,07,09,08,44,19.40
2006,07,09,08,45,19.40
2006,07,09,08,46,19.40
2006,07,09,08,47,19.40
2006,07,09,08,48,19.40
2006,07,09,08,49,19.40
2006,07,09,08,50,19.40
2006,07,09,08,51,19.40
2006,07,09,08,52,19.40
2006,07,09,08,53,19.50
2006,07,09,08,54,19.60
2006,07,09,08,55,19.60
2006,07,09,08,56,19.60
2006,07,09,08,57,19.60
2006,07,09,08,58,19.60
2006,07,09,08,59,19.70
2006,07,09,09,00,19.70
2006,07,09,09,01,19.80
2006,07,09,09,02,19.90
2006,07,09,09,03,19.90
2006,07,09,09,04,20.00
2006,07,09,09,05,20.00
2006,07,09,09,06,20.10
2006,07,09,09,07,20.00
2006,07,09,09,08,20.00
2006,07,09,09,09,20.00
2006,07,09,09,10,20.00
2006,07,09,09,11,20.00
2006,07,09,09,12,19.90
2006,07,09,09,13,19.90
2006,07,09,09,14,19.90
2006,07,09,09,15,19.90
2006,07,09,09,16,19.90
2006,07,09,09,17,19.90
2006,07,09,09,18,19.90
2006,07,09,09,19,19.90
2006,07,09,09,20,19.90
2006,07,09,09,21,19.90
2006,07,09,09,22,19.90
2006,07,09,09,23,19.90
2006,07,09,09,24,20.00
2006,07,09,09,25,20.00
2006,07,09,09,26,20.00
2006,07,09,09,27,20.00
2006,07,09,09,28,20.10
2006,07,09,09,29,20.10
2006,07,09,09,30,20.20
2006,07,09,09,31,20.30
2006,07,09,09,32,20.40
2006,07,09,09,33,20.50
2006,07,09,09,34,20.60
2006,07,09,09,35,20.80
2006,07,09,09,36,20.80
2006,07,09,09,37,20.90
2006,07,09,09,38,21.00
2006,07,09,09,39,21.10
2006,07,09,09,40,21.20
2006,07,09,09,41,21.40
2006,07,09,09,42,21.50
2006,07,09,09,43,21.60
2006,07,09,09,44,21.70
2006,07,09,09,45,21.70
2006,07,09,09,46,21.60
2006,07,09,09,47,21.50
2006,07,09,09,48,21.30
2006,07,09,09,49,21.20
2006,07,09,09,50,21.00
2006,07,09,09,51,20.90
2006,07,09,09,52,20.90
2006,07,09,09,53,20.90
2006,07,09,09,54,21.00
2006,07,09,09,55,21.10
2006,07,09,09,56,21.10
2006,07,09,09,57,21.00
2006,07,09,09,58,21.10
2006,07,09,09,59,21.10
2006,07,09,10,00,21.10
2006,07,09,10,01,21.20
2006,07,09,10,02,21.20
2006,07,09,10,03,21.30
2006,07,09,10,04,21.30
2006,07,09,10,05,21.30
2006,07,09,10,06,21.40
2006,07,09,10,07,21.30
2006,07,09,10,08,21.30
2006,07,09,10,09,21.30
2006,07,09,10,10,21.30
2006,07,09,10,11,21.20
2006,07,09,10,12,21.20
2006,07,09,10,13,21.20
2006,07,09,10,14,21.20
2006,07,09,10,15,21.20
2006,07,09,10,16,21.30
2006,07,09,10,17,21.30
2006,07,09,10,18,21.30
2006,07,09,10,19,21.30
2006,07,09,10,20,21.40
2006,07,09,10,21,21.50
2006,07,09,10,22,21.60
2006,07,09,10,23,21.70
2006,07,09,10,24,21.80
2006,07,09,10,25,21.90
2006,07,09,10,26,21.90
2006,07,09,10,27,22.10
2006,07,09,10,28,22.20
2006,07,09,10,29,22.20
2006,07,09,10,30,22.20
2006,07,09,10,31,22.20
2006,07,09,10,32,22.20
2006,07,09,10,33,22.10
2006,07,09,10,34,22.00
2006,07,09,10,35,21.90
2006,07,09,10,36,21.90
2006,07,09,10,37,21.90
2006,07,09,10,38,21.90
2006,07,09,10,39,22.00
2006,07,09,10,40,22.00
2006,07,09,10,41,22.10
2006,07,09,10,42,22.10
2006,07,09,10,43,22.10
2006,07,09,10,44,22.10
2006,07,09,10,45,22.20
2006,07,09,10,46,22.20
2006,07,09,10,47,22.20
2006,07,09,10,48,22.20
2006,07,09,10,49,22.20
2006,07,09,10,50,22.30
2006,07,09,10,51,22.40
2006,07,09,10,52,22.40
2006,07,09,10,53,22.50
2006,07,09,10,54,22.60
2006,07,09,10,55,22.50
2006,07,09,10,56,22.40
2006,07,09,10,57,22.30
2006,07,09,10,58,22.30
2006,07,09,10,59,22.20
2006,07,09,11,00,22.20
2006,07,09,11,01,22.30
2006,07,09,11,02,22.30
2006,07,09,11,03,22.40
2006,07,09,11,04,22.40
2006,07,09,11,05,22.40
2006,07,09,11,06,22.40
2006,07,09,11,07,22.40
2006,07,09,11,08,22.40
2006,07,09,11,09,22.40
2006,07,09,11,10,22.40
2006,07,09,11,11,22.40
2006,07,09,11,12,22.40
2006,07,09,11,13,22.40
2006,07,09,11,14,22.40
2006,07,09,11,15,22.40
2006,07,09,11,16,22.50
2006,07,09,11,17,22.60
2006,07,09,11,18,22.60
2006,07,09,11,19,22.60
2006,07,09,11,20,22.60
2006,07,09,11,21,22.60
2006,07,09,11,22,22.70
2006,07,09,11,23,22.60
2006,07,09,11,24,22.50
2006,07,09,11,25,22.40
2006,07,09,11,26,22.40
2006,07,09,11,27,22.30
2006,07,09,11,28,22.30
2006,07,09,11,29,22.30
2006,07,09,11,30,22.30
2006,07,09,11,31,22.30
2006,07,09,11,32,22.30
2006,07,09,11,33,22.20
2006,07,09,11,34,22.20
2006,07,09,11,35,22.20
2006,07,09,11,36,22.20
2006,07,09,11,37,22.20
2006,07,09,11,38,22.20
2006,07,09,11,39,22.20
2006,07,09,11,40,22.30
2006,07,09,11,41,22.30
2006,07,09,11,42,22.30
2006,07,09,11,43,22.20
2006,07,09,11,44,22.20
2006,07,09,11,45,22.20
2006,07,09,11,46,22.20
2006,07,09,11,47,22.20
2006,07,09,11,48,22.10
2006,07,09,11,49,22.00
2006,07,09,11,50,22.10
2006,07,09,11,51,22.10
2006,07,09,11,52,22.10
2006,07,09,11,53,22.10
2006,07,09,11,54,22.20
2006,07,09,11,55,22.20
2006,07,09,11,56,22.20
2006,07,09,11,57,22.30
2006,07,09,11,58,22.40
2006,07,09,11,59,22.40
2006,07,09,12,00,22.40
2006,07,09,12,01,22.40
2006,07,09,12,02,22.30
2006,07,09,12,03,22.30
2006,07,09,12,04,22.30
2006,07,09,12,05,22.30
2006,07,09,12,06,22.40
2006,07,09,12,07,22.40
2006,07,09,12,08,22.50
2006,07,09,12,09,22.50
2006,07,09,12,10,22.60
2006,07,09,12,11,22.60
2006,07,09,12,12,22.70
2006,07,09,12,13,22.70
2006,07,09,12,14,22.70
2006,07,09,12,15,22.70
2006,07,09,12,16,22.70
2006,07,09,12,17,22.80
2006,07,09,12,18,22.90
2006,07,09,12,19,23.00
2006,07,09,12,20,23.10
2006,07,09,12,21,23.10
2006,07,09,12,22,23.20
2006,07,09,12,23,23.20
2006,07,09,12,24,23.20
2006,07,09,12,25,23.10
2006,07,09,12,26,23.00
2006,07,09,12,27,23.00
2006,07,09,12,28,23.00
2006,07,09,12,29,23.00
2006,07,09,12,30,23.10
2006,07,09,12,31,23.20
2006,07,09,12,32,23.30
2006,07,09,12,33,23.40
2006,07,09,12,34,23.40
2006,07,09,12,35,23.50
2006,07,09,12,36,23.50
2006,07,09,12,37,23.50
2006,07,09,12,38,23.50
2006,07,09,12,39,23.50
2006,07,09,12,40,23.40
2006,07,09,12,41,23.30
2006,07,09,12,42,23.30
2006,07,09,12,43,23.30
2006,07,09,12,44,23.30
2006,07,09,12,45,23.40
2006,07,09,12,46,23.40
2006,07,09,12,47,23.40
2006,07,09,12,48,23.40
2006,07,09,12,49,23.50
2006,07,09,12,50,23.50
2006,07,09,12,51,23.60
2006,07,09,12,52,23.70
2006,07,09,12,53,23.70
2006,07,09,12,54,23.80
2006,07,09,12,55,23.80
2006,07,09,12,56,23.80
2006,07,09,12,57,23.80
2006,07,09,12,58,23.90
2006,07,09,12,59,23.90
2006,07,09,13,00,23.90
2006,07,09,13,01,23.90
2006,07,09,13,02,23.80
2006,07,09,13,03,23.70
2006,07,09,13,04,23.60
2006,07,09,13,05,23.60
2006,07,09,13,06,23.60
2006,07,09,13,07,23.70
2006,07,09,13,08,23.80
2006,07,09,13,09,23.90
2006,07,09,13,10,23.90
2006,07,09,13,11,23.90
2006,07,09,13,12,23.90
2006,07,09,13,13,23.80
2006,07,09,13,14,23.80
2006,07,09,13,15,23.70
2006,07,09,13,16,23.70
2006,07,09,13,17,23.60
2006,07,09,13,18,23.60
2006,07,09,13,19,23.50
2006,07,09,13,20,23.40
2006,07,09,13,21,23.40
2006,07,09,13,22,23.40
2006,07,09,13,23,23.40
2006,07,09,13,24,23.50
2006,07,09,13,25,23.50
2006,07,09,13,26,23.60
2006,07,09,13,27,23.50
2006,07,09,13,28,23.50
2006,07,09,13,29,23.50
2006,07,09,13,30,23.50
2006,07,09,13,31,23.40
2006,07,09,13,32,23.40
2006,07,09,13,33,23.40
2006,07,09,13,34,23.40
2006,07,09,13,35,23.50
2006,07,09,13,36,23.50
2006,07,09,13,37,23.60
2006,07,09,13,38,23.70
2006,07,09,13,39,23.70
2006,07,09,13,40,23.70
2006,07,09,13,41,23.70
2006,07,09,13,42,23.70
2006,07,09,13,43,23.80
2006,07,09,13,44,23.80
2006,07,09,13,45,23.90
2006,07,09,13,46,24.00
2006,07,09,13,47,24.00
2006,07,09,13,48,24.10
2006,07,09,13,49,24.20
2006,07,09,13,50,24.40
2006,07,09,13,51,24.60
2006,07,09,13,52,24.70
2006,07,09,13,53,24.70
2006,07,09,13,54,24.70
2006,07,09,13,55,24.70
2006,07,09,13,56,24.70
2006,07,09,13,57,24.70
2006,07,09,13,58,24.90
2006,07,09,13,59,25.00
2006,07,09,14,00,25.20
2006,07,09,14,01,25.30
2006,07,09,14,02,25.40
2006,07,09,14,03,25.50
2006,07,09,14,04,25.60
2006,07,09,14,05,25.50
2006,07,09,14,06,25.40
2006,07,09,14,07,25.30
2006,07,09,14,08,25.30
2006,07,09,14,09,25.40
2006,07,09,14,10,25.60
2006,07,09,14,11,25.70
2006,07,09,14,12,25.80
2006,07,09,14,13,25.90
2006,07,09,14,14,25.90
2006,07,09,14,15,25.70
2006,07,09,14,16,25.70
2006,07,09,14,17,25.70
2006,07,09,14,18,25.60
2006,07,09,14,19,25.60
2006,07,09,14,20,25.50
2006,07,09,14,21,25.30
2006,07,09,14,22,25.20
2006,07,09,14,23,25.10
2006,07,09,14,24,25.10
2006,07,09,14,25,25.10
2006,07,09,14,26,25.10
2006,07,09,14,27,25.10
2006,07,09,14,28,25.10
2006,07,09,14,29,25.00
2006,07,09,14,30,24.90
2006,07,09,14,31,24.80
2006,07,09,14,32,24.90
2006,07,09,14,33,25.00
2006,07,09,14,34,25.10
2006,07,09,14,35,25.20
2006,07,09,14,36,25.20
2006,07,09,14,37,25.20
2006,07,09,14,38,25.10
2006,07,09,14,39,25.00
2006,07,09,14,40,25.00
2006,07,09,14,41,25.00
2006,07,09,14,42,24.90
2006,07,09,14,43,24.80
2006,07,09,14,44,24.90
2006,07,09,14,45,25.00
2006,07,09,14,46,25.10
2006,07,09,14,47,25.20
2006,07,09,14,48,25.30
2006,07,09,14,49,25.40
2006,07,09,14,50,25.50
2006,07,09,14,51,25.50
2006,07,09,14,52,25.50
2006,07,09,14,53,25.40
2006,07,09,14,54,25.40
2006,07,09,14,55,25.40
2006,07,09,14,56,25.20
2006,07,09,14,57,24.90
2006,07,09,14,58,24.80
2006,07,09,14,59,24.70
2006,07,09,15,00,24.60
2006,07,09,15,01,24.50
2006,07,09,15,02,24.40
2006,07,09,15,03,24.40
2006,07,09,15,04,24.40
2006,07,09,15,05,24.30
2006,07,09,15,06,24.30
2006,07,09,15,07,24.30
2006,07,09,15,08,24.20
2006,07,09,15,09,24.20
2006,07,09,15,10,24.10
2006,07,09,15,11,24.00
2006,07,09,15,12,23.90
2006,07,09,15,13,23.90
2006,07,09,15,14,23.80
2006,07,09,15,15,23.80
2006,07,09,15,16,23.80
2006,07,09,15,17,23.80
2006,07,09,15,18,23.90
2006,07,09,15,19,23.90
2006,07,09,15,20,24.00
2006,07,09,15,21,24.00
2006,07,09,15,22,23.90
2006,07,09,15,23,23.80
2006,07,09,15,24,23.90
2006,07,09,15,25,23.90
2006,07,09,15,26,23.80
2006,07,09,15,27,23.90
2006,07,09,15,28,23.90
2006,07,09,15,29,23.90
2006,07,09,15,30,23.90
2006,07,09,15,31,24.00
2006,07,09,15,32,24.00
2006,07,09,15,33,23.90
2006,07,09,15,34,23.90
2006,07,09,15,35,23.90
2006,07,09,15,36,24.00
2006,07,09,15,37,24.10
2006,07,09,15,38,24.10
2006,07,09,15,39,24.10
2006,07,09,15,40,24.00
2006,07,09,15,41,23.90
2006,07,09,15,42,23.90
2006,07,09,15,43,23.90
2006,07,09,15,44,23.90
2006,07,09,15,45,23.90
2006,07,09,15,46,23.90
2006,07,09,15,47,23.90
2006,07,09,15,48,23.90
2006,07,09,15,49,24.10
2006,07,09,15,50,24.20
2006,07,09,15,51,24.10
2006,07,09,15,52,24.10
2006,07,09,15,53,24.00
2006,07,09,15,54,23.90
2006,07,09,15,55,23.90
2006,07,09,15,56,23.80
2006,07,09,15,57,23.70
2006,07,09,15,58,23.70
2006,07,09,15,59,23.70
2006,07,09,16,00,23.80
2006,07,09,16,01,23.90
2006,07,09,16,02,24.10
2006,07,09,16,03,24.20
2006,07,09,16,04,24.30
2006,07,09,16,05,24.20
2006,07,09,16,06,24.20
2006,07,09,16,07,24.20
2006,07,09,16,08,24.20
2006,07,09,16,09,24.20
2006,07,09,16,10,24.30
2006,07,09,16,11,24.30
2006,07,09,16,12,24.30
2006,07,09,16,13,24.30
2006,07,09,16,14,24.40
2006,07,09,16,15,24.40
2006,07,09,16,16,24.40
2006,07,09,16,17,24.40
2006,07,09,16,18,24.40
2006,07,09,16,19,24.40
2006,07,09,16,20,24.30
2006,07,09,16,21,24.20
2006,07,09,16,22,24.20
2006,07,09,16,23,24.10
2006,07,09,16,24,24.10
2006,07,09,16,25,24.10
2006,07,09,16,26,24.10
2006,07,09,16,27,24.10
2006,07,09,16,28,24.10
2006,07,09,16,29,24.10
2006,07,09,16,30,24.20
2006,07,09,16,31,24.20
2006,07,09,16,32,24.20
2006,07,09,16,33,24.30
2006,07,09,16,34,24.30
2006,07,09,16,35,24.40
2006,07,09,16,36,24.40
2006,07,09,16,37,24.40
2006,07,09,16,38,24.30
2006,07,09,16,39,24.30
2006,07,09,16,40,24.30
2006,07,09,16,41,24.20
2006,07,09,16,42,24.10
2006,07,09,16,43,24.10
2006,07,09,16,44,24.10
2006,07,09,16,45,24.10
2006,07,09,16,46,24.10
2006,07,09,16,47,24.20
2006,07,09,16,48,24.20
2006,07,09,16,49,24.10
2006,07,09,16,50,24.10
2006,07,09,16,51,24.10
2006,07,09,16,52,24.20
2006,07,09,16,53,24.30
2006,07,09,16,54,24.40
2006,07,09,16,55,24.60
2006,07,09,16,56,24.70
2006,07,09,16,57,24.70
2006,07,09,16,58,24.70
2006,07,09,16,59,24.70
2006,07,09,17,00,24.60
2006,07,09,17,01,24.70
2006,07,09,17,02,24.70
2006,07,09,17,03,24.70
2006,07,09,17,04,24.50
2006,07,09,17,05,24.40
2006,07,09,17,06,24.30
2006,07,09,17,07,24.30
2006,07,09,17,08,24.30
2006,07,09,17,09,24.20
2006,07,09,17,10,24.30
2006,07,09,17,11,24.40
2006,07,09,17,12,24.50
2006,07,09,17,13,24.60
2006,07,09,17,14,24.60
2006,07,09,17,15,24.60
2006,07,09,17,16,24.50
2006,07,09,17,17,24.40
2006,07,09,17,18,24.30
2006,07,09,17,19,24.30